Location: Observatorio Las Palmas
(29.0667°N, 110.9333°W)
Time: 04:26:43
(UTC-07:00)

HST - Visible Passes

Search period start: 16 September 2014 00:00
Search period end: 26 September 2014 00:00
Orbit: 547 x 551 km, 28.5° (Epoch: 16 September)

Date Brightness Start Highest point End Pass type
(mag) Time Alt. Az. Time Alt. Az. Time Alt. Az.
16 Sep 2.9 20:24:33 10° WSW 20:26:55 18° SW 20:26:55 18° SW visible
17 Sep 3.2 20:18:11 10° WSW 20:20:24 14° SSW 20:20:25 14° SSW visible
18 Sep 3.5 20:12:54 10° SW 20:13:17 10° SSW 20:13:40 10° SSW visible
